Home   Weather   Thompson   Past weeks
Flag for Canada

Past Weather in Thompson, Manitoba, Canada — Yesterday and Last 2 Weeks

Now
28 °F

Passing clouds.


Feels Like: 17 °F
Forecast: 31 / 22 °F
Wind: 14 mph from Northwest

Location: Thompson

Current Time: Oct 23, 2019 at 1:35:20 pm

Latest Report: Oct 23, 2019 at 12:00 pm


Visibility: 15 mi

Pressure: 30.06 "Hg

Humidity: 64%

Dew Point: 18 °F

Location of ThompsonLocation

Past Weather in Thompson — Graph

°F

Thompson Temperature Yesterday

Maximum temperature yesterday: 37 °F (at 1:00 pm)
Minimum temperature yesterday: 19 °F (at 2:00 am)
Average temperature yesterday: 27 °F

High & Low Weather Summary for the Past Weeks

 TemperatureHumidityPressure
High54 °F (Oct 8, 12:00 pm)100% (Oct 13, 10:00 am)30.40 "Hg (Oct 13, 10:00 am)
Low19 °F (Oct 11, 1:00 am)42% (Oct 10, 5:00 pm)29.28 "Hg (Oct 8, 12:00 pm)
Average34 °F82%29.92 "Hg
* Reported Oct 8 12:00 pm — Oct 23 12:00 pm, Thompson. Weather by CustomWeather, © 2019

Note: Actual official high and low records may vary slightly from our data, if they occured in-between our weather recording intervals... More about our weather records

Advertising

Thompson Weather History for the Previous 24 Hours

Scroll right to see more
 ConditionsComfort  
Time TempWeatherWind HumidityBarometerVisibility
12:00 pm
Wed, Oct 23
28 °FPassing clouds.14 mph64%30.06 "Hg15 mi
11:00 am27 °FPartly sunny.10 mph74%30.04 "Hg15 mi
10:00 am23 °FPartly sunny.9 mph86%30.03 "Hg15 mi
9:00 am23 °FPartly sunny.13 mph86%30.02 "Hg15 mi
8:00 am25 °FOvercast.14 mph86%30.00 "Hg15 mi
7:00 am25 °FOvercast.17 mph80%29.99 "Hg15 mi
6:00 am25 °FPassing clouds.12 mph80%29.99 "Hg15 mi
5:00 am23 °FPassing clouds.12 mph86%29.98 "Hg15 mi
4:15 am23 °FOvercast.12 mph93%29.97 "Hg15 mi
4:00 am23 °FLight freezing rain. Overcast.9 mph93%29.97 "Hg10 mi
3:49 am23 °FLight freezing rain. Low clouds.7 mph93%29.97 "Hg6 mi
3:00 am23 °FPassing clouds.9 mph86%29.97 "Hg15 mi
2:00 am25 °FPassing clouds.9 mph80%29.96 "Hg15 mi
1:00 am25 °FPassing clouds.15 mph86%29.95 "Hg15 mi
12:00 am25 °FPassing clouds.13 mph86%29.95 "Hg15 mi
11:00 pm
Tue, Oct 22
27 °FPassing clouds.9 mph80%29.95 "Hg15 mi
10:00 pm27 °FPassing clouds.12 mph80%29.94 "Hg15 mi
9:00 pm28 °FPassing clouds.10 mph74%29.94 "Hg15 mi
8:00 pm28 °FPassing clouds.7 mph69%29.94 "Hg15 mi
7:00 pm30 °FPassing clouds.10 mph64%29.94 "Hg15 mi
6:00 pm34 °FScattered clouds.10 mph56%29.94 "Hg15 mi
5:00 pm36 °FBroken clouds.10 mph52%29.93 "Hg15 mi
4:00 pm37 °FBroken clouds.15 mph52%29.93 "Hg15 mi
3:00 pm37 °FBroken clouds.17 mph48%29.94 "Hg15 mi
2:00 pm37 °FPartly sunny.12 mph52%29.95 "Hg15 mi
1:00 pm37 °FScattered clouds.13 mph52%29.97 "Hg15 mi
Weather by CustomWeather, © 2019

See weather overview